This demonstration page uses our WeatherBlox Daily Observations layout. Learn more.

Left ArrowRight Arrow

41.55636, -103.73856

Hourly Observations for March 31, 2021

Temp ( °F °C ) Dew Point ( °F °C ) Humidity (%) Winds ( mph kmh ) Pressure ( in mb ) Visibility ( mi km ) Precip ( " mm )
12:58 am 00:58 Mostly Clear 24 -4.6 12 -11.2 60 60 ENE 3 6 30.39 1029 10 16 0.00 0.00
1:58 am 01:58 Clear 24 -4.2 10 -12.5 53 53 Calm 30.38 1029 10 16 0.00 0.00
2:58 am 02:58 Clear 20 -6.5 11 -11.6 67 67 SSW 6 9 30.40 1029 10 16 0.00 0.00
3:58 am 03:58 Clear 21 -6.1 11 -11.5 66 66 WSW 7 11 30.40 1029 10 16 0.00 0.00
4:58 am 04:58 Clear 20 -6.7 11 -11.9 67 67 SW 6 9 30.41 1030 10 16 0.00 0.00
5:58 am 05:58 Clear 22 -5.8 11 -11.6 64 64 Calm 30.44 1031 10 16 0.00 0.00
6:58 am 06:58 Sunny 19 -7 12 -10.9 74 74 W 9 15 30.47 1032 10 16 0.00 0.00
7:58 am 07:58 Sunny 23 -4.8 16 -8.9 73 73 WNW 12 19 30.48 1032 10 16 0.00 0.00
8:58 am 08:58 Sunny 28 -2.1 12 -10.9 51 51 NW 17 28 30.49 1033 10 16 0.00 0.00
9:58 am 09:58 Sunny 31 -0.7 12 -11 46 46 NNW 17 28 30.53 1034 10 16 0.00 0.00
10:58 am 10:58 Sunny 34 1.3 10 -12 37 37 NNW 12 19 30.53 1034 10 16 0.00 0.00
11:58 am 11:58 Sunny 36 2.1 10 -12.4 34 34 N 14 22 30.53 1034 10 16 0.00 0.00
12:58 pm 12:58 Sunny 37 2.8 10 -12.3 32 32 N 16 26 30.52 1034 10 16 0.00 0.00
1:58 pm 13:58 Sunny 40 4.2 13 -10.5 34 34 NNW 16 26 30.49 1033 10 16 0.00 0.00
2:58 pm 14:58 Sunny 41 4.9 13 -10.6 32 32 N 13 20 30.50 1033 10 16 0.00 0.00
3:58 pm 15:58 Sunny 41 5.1 14 -10.2 32 32 N 9 15 30.50 1033 10 16 0.00 0.00
4:58 pm 16:58 Sunny 42 5.8 11 -11.5 28 28 N 8 13 30.47 1032 10 16 0.00 0.00
5:58 pm 17:58 Sunny 42 5.5 13 -10.8 30 30 N 8 13 30.47 1032 10 16 0.00 0.00
6:58 pm 18:58 Sunny 39 4.1 14 -9.9 36 36 E 3 6 30.49 1032 10 16 0.00 0.00
7:58 pm 19:58 Clear 36 2.4 12 -11.2 36 36 SSE 6 9 30.50 1033 10 16 0.00 0.00
8:58 pm 20:58 Clear 30 -1.2 15 -9.2 55 55 S 9 15 30.53 1034 10 16 0.00 0.00
9:58 pm 21:58 Clear 31 -0.7 14 -10.1 49 49 SSE 8 13 30.51 1033 10 16 0.00 0.00
10:58 pm 22:58 Clear 26 -3.1 16 -8.7 66 66 S 13 20 30.50 1033 10 16 0.00 0.00
11:58 pm 23:58 Clear 26 -3.3 16 -8.7 67 67 SSW 13 20 30.47 1032 10 16 0.00 0.00

Powered by AerisWeather